Location: Wanzleben
(52.0609°N, 11.4408°E)
Time: 07:23:07
(UTC+00:00)

MOS 1 Rocket - Pass Details

Date: 18 September 2020
Orbit: 614 x 831 km, 97.4° (Epoch: 22 October)

Event Time Altitude Azimuth Distance (km) Brightness Sun altitude
Rises 18:55:42 0° 11° (N) 3,059 6.8 -14.9°
Reaches altitude 10° 18:58:01 10° 8° (N) 2,107 6.0 -15.3°
Maximum altitude 19:02:32 62° 289° (WNW) 728 3.7 -15.9°
Drops below altitude 10° 19:06:49 10° 208° (SSW) 1,999 5.7 -16.5°
Sets 19:08:58 0° 205° (SSW) 2,887 6.5 -16.8°
